sat.trackr.live / text

‹ back to catalog

JILIN-1 KUANFU 01C

NORAD 52443 · 2022-048A

PAYLOAD ACTIVE UNKNOWN

§ Identity

Operator
Country
PRC
Launch date
2022-05-05
Launch site
TAISC
Launch vehicle
Mass (kg)
RCS (m²)

External: N2YO · Heavens-Above · Gunter

§ Orbital elements

Epoch: 2026-05-25T03:51:54.871200Z

Period
95.36 min
Inclination
97.5256°
Eccentricity
0.0016310
Mean motion
15.10088632 rev/d
Perigee alt
524.7 km
Apogee alt
547.2 km
Semi-major
6,914.1 km
B*
1.9909e-4
RAAN
222.7567°
Arg perigee
48.6386°
Mean anomaly
311.6243°
Rev number
22,372

§ Raw data

JILIN-1 KUANFU 01C1 52443U 22048A   26145.16105175  .00003188  00000+0  19909-3 0  99982 52443  97.5256 222.7567 0016310  48.6386 311.6243 15.10088632223721

JSON: /api/v1/satellites/52443 · /tle

For live sub-satellite position, see the globe view (requires WebGL).

§ Visibility from observer

Set your observer location to see the next 7 days of passes ≥ 10°. The values pass through the URL so the page stays shareable.

No JS? Fill the form by hand. The geolocation button needs JavaScript.